Location: Vihti�l�
(61.3833°N, 23.0667°E)
Time: 04:19:24
(UTC+00:00)

RESURS DK-1 - Pass Details

Date: 29 November 2020
Orbit: 556 x 561 km, 69.9° (Epoch: 19 January)

Event Time Altitude Azimuth Distance (km) Brightness Sun altitude
Rises 06:08:22 0° 247° (WSW) 2,752 5.6 -6.5°
Reaches altitude 10° 06:10:39 10° 254° (WSW) 1,859 4.7 -6.3°
Maximum altitude 06:14:39 46° 328° (NNW) 772 2.7 -5.9°
Drops below altitude 10° 06:18:41 10° 43° (NE) 1,866 5.1 -5.5°
Sets 06:20:58 0° 49° (NE) 2,764 6.1 -5.3°
